STARLINK-1930 (46789 NORAD) Tracking and Keplerian Element Data
This shows tracking and keplerian element data for the satellite.
Feedback or suggestion? Click here.
Element | Value |
Catalog | 46789 |
Name | STARLINK-1930 |
Epoch Orbit | 180 |
Epoch Day | 17.91667824 |
Epoch Year | 2021 |
RAAN | 106.8364 |
Inclination | 53.0575 |
Eccentricity | 0.0001233 |
Argument of Perigee | 77.2245 |
Mean Anonmoly | 289.9166 |
Mean Motion | 15.13086708 |
Decay Rate | -0.01059336 |
L1 | 1 46789U 20074BC 21017.91667824 -.01059336 00000-0 -63831-1 0 9992 |
L2 | 2 46789 53.0575 106.8364 0001233 77.2245 289.9166 15.13086708 1804 |
Live tracking and technical data element details for STARLINK-1930 (NORAD 46789). STARLINK-1930 can be tracked NOW for your location showing map with azimuth and elevation plus other details from your city location.
Track the satellite on the map from your city or location and see movement details for azimuth, elevation, latitude, longitude, range, height, and movement on the map or in text.
IsCatalogInMostPopularTable: catalog: 46789, numindb: 28
Update: records affected: 1
GetName: 46789 STARLINK-1930
Hit Count: updated at: Mon, 18 Jan 2021 16:04:57 GMT